Year,Month,Day,Hour,Minute,Value (Times are PST for temperature in C)
2010,06,21,08,25,12.70
2010,06,21,08,26,12.70
2010,06,21,08,27,12.70
2010,06,21,08,28,12.70
2010,06,21,08,29,12.70
2010,06,21,08,30,12.70
2010,06,21,08,31,12.70
2010,06,21,08,32,12.70
2010,06,21,08,33,12.70
2010,06,21,08,34,12.70
2010,06,21,08,35,12.80
2010,06,21,08,36,12.80
2010,06,21,08,37,12.80
2010,06,21,08,38,12.80
2010,06,21,08,39,12.80
2010,06,21,08,40,12.80
2010,06,21,08,41,12.80
2010,06,21,08,42,12.80
2010,06,21,08,43,12.80
2010,06,21,08,44,12.80
2010,06,21,08,45,12.80
2010,06,21,08,46,12.80
2010,06,21,08,47,12.90
2010,06,21,08,48,12.90
2010,06,21,08,49,12.90
2010,06,21,08,50,12.90
2010,06,21,08,51,12.90
2010,06,21,08,52,12.90
2010,06,21,08,53,12.90
2010,06,21,08,54,12.90
2010,06,21,08,55,12.90
2010,06,21,08,56,12.90
2010,06,21,08,57,12.90
2010,06,21,08,58,12.90
2010,06,21,08,59,12.90
2010,06,21,09,00,12.90
2010,06,21,09,01,12.90
2010,06,21,09,02,12.90
2010,06,21,09,03,12.90
2010,06,21,09,04,12.90
2010,06,21,09,05,12.80
2010,06,21,09,06,12.80
2010,06,21,09,07,12.80
2010,06,21,09,08,12.80
2010,06,21,09,09,12.90
2010,06,21,09,10,12.90
2010,06,21,09,11,12.90
2010,06,21,09,12,12.90
2010,06,21,09,13,12.90
2010,06,21,09,14,12.90
2010,06,21,09,15,12.90
2010,06,21,09,16,13.00
2010,06,21,09,17,13.00
2010,06,21,09,18,13.00
2010,06,21,09,19,13.10
2010,06,21,09,20,13.10
2010,06,21,09,21,13.10
2010,06,21,09,22,13.10
2010,06,21,09,23,13.20
2010,06,21,09,24,13.20
2010,06,21,09,25,13.30
2010,06,21,09,26,13.30
2010,06,21,09,27,13.30
2010,06,21,09,28,13.30
2010,06,21,09,29,13.30
2010,06,21,09,30,13.30
2010,06,21,09,31,13.30
2010,06,21,09,32,13.30
2010,06,21,09,33,13.30
2010,06,21,09,34,13.30
2010,06,21,09,35,13.30
2010,06,21,09,36,13.30
2010,06,21,09,37,13.30
2010,06,21,09,38,13.30
2010,06,21,09,39,13.30
2010,06,21,09,40,13.30
2010,06,21,09,41,13.30
2010,06,21,09,42,13.30
2010,06,21,09,43,13.30
2010,06,21,09,44,13.30
2010,06,21,09,45,13.30
2010,06,21,09,46,13.30
2010,06,21,09,47,13.30
2010,06,21,09,48,13.30
2010,06,21,09,49,13.40
2010,06,21,09,50,13.40
2010,06,21,09,51,13.40
2010,06,21,09,52,13.40
2010,06,21,09,53,13.40
2010,06,21,09,54,13.40
2010,06,21,09,55,13.40
2010,06,21,09,56,13.40
2010,06,21,09,57,13.30
2010,06,21,09,58,13.30
2010,06,21,09,59,13.30
2010,06,21,10,00,13.30
2010,06,21,10,01,13.30
2010,06,21,10,02,13.30
2010,06,21,10,03,13.30
2010,06,21,10,04,13.30
2010,06,21,10,05,13.30
2010,06,21,10,06,13.30
2010,06,21,10,07,13.30
2010,06,21,10,08,13.30
2010,06,21,10,09,13.30
2010,06,21,10,10,13.30
2010,06,21,10,11,13.40
2010,06,21,10,12,13.40
2010,06,21,10,13,13.40
2010,06,21,10,14,13.40
2010,06,21,10,15,13.40
2010,06,21,10,16,13.40
2010,06,21,10,17,13.40
2010,06,21,10,18,13.50
2010,06,21,10,19,13.50
2010,06,21,10,20,13.50
2010,06,21,10,21,13.50
2010,06,21,10,22,13.50
2010,06,21,10,23,13.60
2010,06,21,10,24,13.60
2010,06,21,10,25,13.70
2010,06,21,10,26,13.70
2010,06,21,10,27,13.70
2010,06,21,10,28,13.70
2010,06,21,10,29,13.70
2010,06,21,10,30,13.70
2010,06,21,10,31,13.80
2010,06,21,10,32,13.80
2010,06,21,10,33,13.80
2010,06,21,10,34,13.90
2010,06,21,10,35,14.00
2010,06,21,10,36,14.00
2010,06,21,10,37,14.00
2010,06,21,10,38,14.00
2010,06,21,10,39,14.10
2010,06,21,10,40,14.10
2010,06,21,10,41,14.20
2010,06,21,10,42,14.20
2010,06,21,10,43,14.20
2010,06,21,10,44,14.20
2010,06,21,10,45,14.20
2010,06,21,10,46,14.20
2010,06,21,10,47,14.30
2010,06,21,10,48,14.30
2010,06,21,10,49,14.30
2010,06,21,10,50,14.40
2010,06,21,10,51,14.40
2010,06,21,10,52,14.50
2010,06,21,10,53,14.50
2010,06,21,10,54,14.50
2010,06,21,10,55,14.50
2010,06,21,10,56,14.50
2010,06,21,10,57,14.60
2010,06,21,10,58,14.60
2010,06,21,10,59,14.70
2010,06,21,11,00,14.70
2010,06,21,11,01,14.70
2010,06,21,11,02,14.70
2010,06,21,11,03,14.80
2010,06,21,11,04,14.80
2010,06,21,11,05,14.80
2010,06,21,11,06,14.80
2010,06,21,11,07,14.80
2010,06,21,11,08,14.90
2010,06,21,11,09,14.90
2010,06,21,11,10,14.90
2010,06,21,11,11,14.90
2010,06,21,11,12,14.90
2010,06,21,11,13,14.90
2010,06,21,11,14,15.00
2010,06,21,11,15,15.00
2010,06,21,11,16,14.90
2010,06,21,11,17,14.90
2010,06,21,11,18,15.00
2010,06,21,11,19,15.00
2010,06,21,11,20,15.10
2010,06,21,11,21,15.10
2010,06,21,11,22,15.10
2010,06,21,11,23,15.20
2010,06,21,11,24,15.20
2010,06,21,11,25,15.30
2010,06,21,11,26,15.30
2010,06,21,11,27,15.40
2010,06,21,11,28,15.40
2010,06,21,11,29,15.40
2010,06,21,11,30,15.50
2010,06,21,11,31,15.50
2010,06,21,11,32,15.50
2010,06,21,11,33,15.50
2010,06,21,11,34,15.50
2010,06,21,11,35,15.50
2010,06,21,11,36,15.60
2010,06,21,11,37,15.60
2010,06,21,11,38,15.60
2010,06,21,11,39,15.60
2010,06,21,11,40,15.60
2010,06,21,11,41,15.70
2010,06,21,11,42,15.60
2010,06,21,11,43,15.60
2010,06,21,11,44,15.60
2010,06,21,11,45,15.60
2010,06,21,11,46,15.60
2010,06,21,11,47,15.60
2010,06,21,11,48,15.60
2010,06,21,11,49,15.60
2010,06,21,11,50,15.60
2010,06,21,11,51,15.60
2010,06,21,11,52,15.60
2010,06,21,11,53,15.70
2010,06,21,11,54,15.80
2010,06,21,11,55,15.80
2010,06,21,11,56,15.80
2010,06,21,11,57,15.70
2010,06,21,11,58,15.60
2010,06,21,11,59,15.60
2010,06,21,12,00,15.50
2010,06,21,12,01,15.40
2010,06,21,12,02,15.30
2010,06,21,12,03,15.30
2010,06,21,12,04,15.20
2010,06,21,12,05,15.10
2010,06,21,12,06,15.10
2010,06,21,12,07,15.10
2010,06,21,12,08,15.20
2010,06,21,12,09,15.20
2010,06,21,12,10,15.20
2010,06,21,12,11,15.20
2010,06,21,12,12,15.10
2010,06,21,12,13,14.90
2010,06,21,12,14,14.80
2010,06,21,12,15,14.70
2010,06,21,12,16,14.70
2010,06,21,12,17,14.70
2010,06,21,12,18,14.80
2010,06,21,12,19,14.80
2010,06,21,12,20,14.80
2010,06,21,12,21,14.90
2010,06,21,12,22,14.90
2010,06,21,12,23,15.00
2010,06,21,12,24,15.00
2010,06,21,12,25,14.90
2010,06,21,12,26,14.80
2010,06,21,12,27,14.70
2010,06,21,12,28,14.70
2010,06,21,12,29,14.70
2010,06,21,12,30,14.70
2010,06,21,12,31,14.70
2010,06,21,12,32,14.60
2010,06,21,12,33,14.50
2010,06,21,12,34,14.50
2010,06,21,12,35,14.60
2010,06,21,12,36,14.60
2010,06,21,12,37,14.70
2010,06,21,12,38,14.70
2010,06,21,12,39,14.70
2010,06,21,12,40,14.70
2010,06,21,12,41,14.60
2010,06,21,12,42,14.70
2010,06,21,12,43,14.80
2010,06,21,12,44,14.80
2010,06,21,12,45,14.80
2010,06,21,12,46,14.80
2010,06,21,12,47,14.80
2010,06,21,12,48,14.80
2010,06,21,12,49,14.60
2010,06,21,12,50,14.50
2010,06,21,12,51,14.40
2010,06,21,12,52,14.40
2010,06,21,12,53,14.30
2010,06,21,12,54,14.20
2010,06,21,12,55,14.20
2010,06,21,12,56,14.20
2010,06,21,12,57,14.20
2010,06,21,12,58,14.20
2010,06,21,12,59,14.40
2010,06,21,13,00,14.60
2010,06,21,13,01,14.70
2010,06,21,13,02,14.80
2010,06,21,13,03,14.90
2010,06,21,13,04,15.00
2010,06,21,13,05,15.00
2010,06,21,13,06,15.00
2010,06,21,13,07,15.10
2010,06,21,13,08,15.20
2010,06,21,13,09,15.20
2010,06,21,13,10,15.30
2010,06,21,13,11,15.20
2010,06,21,13,12,15.20
2010,06,21,13,13,15.20
2010,06,21,13,14,15.20
2010,06,21,13,15,15.20
2010,06,21,13,16,15.20
2010,06,21,13,17,15.30
2010,06,21,13,18,15.30
2010,06,21,13,19,15.30
2010,06,21,13,20,15.30
2010,06,21,13,21,15.30
2010,06,21,13,22,15.30
2010,06,21,13,23,15.40
2010,06,21,13,24,15.50
2010,06,21,13,25,15.60
2010,06,21,13,26,15.50
2010,06,21,13,27,15.50
2010,06,21,13,28,15.40
2010,06,21,13,29,15.10
2010,06,21,13,30,15.00
2010,06,21,13,31,14.90
2010,06,21,13,32,14.80
2010,06,21,13,33,14.90
2010,06,21,13,34,15.00
2010,06,21,13,35,15.10
2010,06,21,13,36,15.10
2010,06,21,13,37,15.10
2010,06,21,13,38,15.10
2010,06,21,13,39,15.10
2010,06,21,13,40,15.00
2010,06,21,13,41,15.10
2010,06,21,13,42,15.10
2010,06,21,13,43,15.10
2010,06,21,13,44,15.20
2010,06,21,13,45,15.30
2010,06,21,13,46,15.40
2010,06,21,13,47,15.50
2010,06,21,13,48,15.60
2010,06,21,13,49,15.50
2010,06,21,13,50,15.40
2010,06,21,13,51,15.20
2010,06,21,13,52,15.10
2010,06,21,13,53,14.90
2010,06,21,13,54,14.70
2010,06,21,13,55,14.60
2010,06,21,13,56,14.50
2010,06,21,13,57,14.40
2010,06,21,13,58,14.20
2010,06,21,13,59,14.20
2010,06,21,14,00,14.20
2010,06,21,14,01,14.20
2010,06,21,14,02,14.10
2010,06,21,14,03,14.20
2010,06,21,14,04,14.20
2010,06,21,14,05,14.10
2010,06,21,14,06,14.20
2010,06,21,14,07,14.30
2010,06,21,14,08,14.40
2010,06,21,14,09,14.40
2010,06,21,14,10,14.40
2010,06,21,14,11,14.40
2010,06,21,14,12,14.30
2010,06,21,14,13,14.20
2010,06,21,14,14,14.00
2010,06,21,14,15,13.90
2010,06,21,14,16,13.90
2010,06,21,14,17,13.90
2010,06,21,14,18,14.00
2010,06,21,14,19,14.00
2010,06,21,14,20,14.00
2010,06,21,14,21,14.10
2010,06,21,14,22,14.20
2010,06,21,14,23,14.20
2010,06,21,14,24,14.20
2010,06,21,14,25,14.20
2010,06,21,14,26,14.20
2010,06,21,14,27,14.20
2010,06,21,14,28,14.20
2010,06,21,14,29,14.20
2010,06,21,14,30,14.20
2010,06,21,14,31,14.20
2010,06,21,14,32,14.30
2010,06,21,14,33,14.40
2010,06,21,14,34,14.40
2010,06,21,14,35,14.40
2010,06,21,14,36,14.30
2010,06,21,14,37,14.20
2010,06,21,14,38,14.20
2010,06,21,14,39,14.30
2010,06,21,14,40,14.30
2010,06,21,14,41,14.40
2010,06,21,14,42,14.40
2010,06,21,14,43,14.50
2010,06,21,14,44,14.50
2010,06,21,14,45,14.50
2010,06,21,14,46,14.50
2010,06,21,14,47,14.40
2010,06,21,14,48,14.30
2010,06,21,14,49,14.40
2010,06,21,14,50,14.40
2010,06,21,14,51,14.50
2010,06,21,14,52,14.50
2010,06,21,14,53,14.40
2010,06,21,14,54,14.30
2010,06,21,14,55,14.30
2010,06,21,14,56,14.20
2010,06,21,14,57,14.00
2010,06,21,14,58,13.80
2010,06,21,14,59,13.90
2010,06,21,15,00,13.90
2010,06,21,15,01,13.80
2010,06,21,15,02,13.80
2010,06,21,15,03,13.80
2010,06,21,15,04,13.90
2010,06,21,15,05,13.90
2010,06,21,15,06,13.90
2010,06,21,15,07,13.80
2010,06,21,15,08,13.80
2010,06,21,15,09,13.70
2010,06,21,15,10,13.70
2010,06,21,15,11,13.70
2010,06,21,15,12,13.70
2010,06,21,15,13,13.70
2010,06,21,15,14,13.80
2010,06,21,15,15,13.90
2010,06,21,15,16,13.90
2010,06,21,15,17,14.00
2010,06,21,15,18,13.90
2010,06,21,15,19,13.80
2010,06,21,15,20,13.80
2010,06,21,15,21,13.70
2010,06,21,15,22,13.70
2010,06,21,15,23,13.70
2010,06,21,15,24,13.70
2010,06,21,15,25,13.70
2010,06,21,15,26,13.70
2010,06,21,15,27,13.60
2010,06,21,15,28,13.60
2010,06,21,15,29,13.60
2010,06,21,15,30,13.70
2010,06,21,15,31,13.70
2010,06,21,15,32,13.70
2010,06,21,15,33,13.80
2010,06,21,15,34,13.80
2010,06,21,15,35,13.80
2010,06,21,15,36,13.80
2010,06,21,15,37,13.90
2010,06,21,15,38,14.00
2010,06,21,15,39,13.90
2010,06,21,15,40,13.80
2010,06,21,15,41,13.70
2010,06,21,15,42,13.70
2010,06,21,15,43,13.70
2010,06,21,15,44,13.60
2010,06,21,15,45,13.60
2010,06,21,15,46,13.60
2010,06,21,15,47,13.50
2010,06,21,15,48,13.50
2010,06,21,15,49,13.50
2010,06,21,15,50,13.40
2010,06,21,15,51,13.30
2010,06,21,15,52,13.40
2010,06,21,15,53,13.40
2010,06,21,15,54,13.40
2010,06,21,15,55,13.40
2010,06,21,15,56,13.40
2010,06,21,15,57,13.40
2010,06,21,15,58,13.40
2010,06,21,15,59,13.40
2010,06,21,16,00,13.40
2010,06,21,16,01,13.40
2010,06,21,16,02,13.40
2010,06,21,16,03,13.50
2010,06,21,16,04,13.60
2010,06,21,16,05,13.60
2010,06,21,16,06,13.70
2010,06,21,16,07,13.70
2010,06,21,16,08,13.70
2010,06,21,16,09,13.80
2010,06,21,16,10,13.80
2010,06,21,16,11,13.80
2010,06,21,16,12,13.80
2010,06,21,16,13,13.70
2010,06,21,16,14,13.60
2010,06,21,16,15,13.60
2010,06,21,16,16,13.60
2010,06,21,16,17,13.60
2010,06,21,16,18,13.60
2010,06,21,16,19,13.50
2010,06,21,16,20,13.40
2010,06,21,16,21,13.40
2010,06,21,16,22,13.40
2010,06,21,16,23,13.30
2010,06,21,16,24,13.30
2010,06,21,16,25,13.30
2010,06,21,16,26,13.30
2010,06,21,16,27,13.40
2010,06,21,16,28,13.40
2010,06,21,16,29,13.50
2010,06,21,16,30,13.40
2010,06,21,16,31,13.40
2010,06,21,16,32,13.50
2010,06,21,16,33,13.50
2010,06,21,16,34,13.50
2010,06,21,16,35,13.40
2010,06,21,16,36,13.40
2010,06,21,16,37,13.40
2010,06,21,16,38,13.40
2010,06,21,16,39,13.50
2010,06,21,16,40,13.50
2010,06,21,16,41,13.50
2010,06,21,16,42,13.60
2010,06,21,16,43,13.60
2010,06,21,16,44,13.60
2010,06,21,16,45,13.60
2010,06,21,16,46,13.60
2010,06,21,16,47,13.60
2010,06,21,16,48,13.70
2010,06,21,16,49,13.70
2010,06,21,16,50,13.80
2010,06,21,16,51,13.80
2010,06,21,16,52,13.80
2010,06,21,16,53,13.80
2010,06,21,16,54,13.90
2010,06,21,16,55,14.00
2010,06,21,16,56,14.20
2010,06,21,16,57,14.10
2010,06,21,16,58,14.00
2010,06,21,16,59,14.00
2010,06,21,17,00,14.00
2010,06,21,17,01,14.00
2010,06,21,17,02,14.10
2010,06,21,17,03,14.10
2010,06,21,17,04,14.10
2010,06,21,17,05,14.10
2010,06,21,17,06,14.10
2010,06,21,17,07,14.20
2010,06,21,17,08,14.20
2010,06,21,17,09,14.20
2010,06,21,17,10,14.20
2010,06,21,17,11,14.20
2010,06,21,17,12,14.20
2010,06,21,17,13,14.20
2010,06,21,17,14,14.10
2010,06,21,17,15,14.10
2010,06,21,17,16,14.10
2010,06,21,17,17,14.20
2010,06,21,17,18,14.20
2010,06,21,17,19,14.20
2010,06,21,17,20,14.20
2010,06,21,17,21,14.10
2010,06,21,17,22,14.10
2010,06,21,17,23,14.10
2010,06,21,17,24,14.10
2010,06,21,17,25,14.20
2010,06,21,17,26,14.20
2010,06,21,17,27,14.30
2010,06,21,17,28,14.30
2010,06,21,17,29,14.30
2010,06,21,17,30,14.40
2010,06,21,17,31,14.50
2010,06,21,17,32,14.50
2010,06,21,17,33,14.50
2010,06,21,17,34,14.40
2010,06,21,17,35,14.50
2010,06,21,17,36,14.60
2010,06,21,17,37,14.70
2010,06,21,17,38,14.80
2010,06,21,17,39,14.80
2010,06,21,17,40,14.90
2010,06,21,17,41,14.90
2010,06,21,17,42,14.90
2010,06,21,17,43,14.90
2010,06,21,17,44,14.90
2010,06,21,17,45,14.90
2010,06,21,17,46,14.90
2010,06,21,17,47,14.90
2010,06,21,17,48,14.90
2010,06,21,17,49,14.90
2010,06,21,17,50,14.80
2010,06,21,17,51,14.60
2010,06,21,17,52,14.50
2010,06,21,17,53,14.40
2010,06,21,17,54,14.20
2010,06,21,17,55,14.20
2010,06,21,17,56,14.20
2010,06,21,17,57,14.10
2010,06,21,17,58,14.10
2010,06,21,17,59,14.20
2010,06,21,18,00,14.30
2010,06,21,18,01,14.40
2010,06,21,18,02,14.50
2010,06,21,18,03,14.50
2010,06,21,18,04,14.50
2010,06,21,18,05,14.50
2010,06,21,18,06,14.50
2010,06,21,18,07,14.60
2010,06,21,18,08,14.60
2010,06,21,18,09,14.70
2010,06,21,18,10,14.80
2010,06,21,18,11,14.90
2010,06,21,18,12,15.00
2010,06,21,18,13,15.00
2010,06,21,18,14,15.10
2010,06,21,18,15,15.20
2010,06,21,18,16,15.20
2010,06,21,18,17,15.10
2010,06,21,18,18,15.10
2010,06,21,18,19,15.10
2010,06,21,18,20,15.20
2010,06,21,18,21,15.30
2010,06,21,18,22,15.20
2010,06,21,18,23,15.20
2010,06,21,18,24,15.20
2010,06,21,18,25,15.20
2010,06,21,18,26,15.20
2010,06,21,18,27,15.10
2010,06,21,18,28,15.10
2010,06,21,18,29,15.10
2010,06,21,18,30,15.20
2010,06,21,18,31,15.20
2010,06,21,18,32,15.20
2010,06,21,18,33,15.30
2010,06,21,18,34,15.30
2010,06,21,18,35,15.30
2010,06,21,18,36,15.30
2010,06,21,18,37,15.30
2010,06,21,18,38,15.40
2010,06,21,18,39,15.30
2010,06,21,18,40,15.30
2010,06,21,18,41,15.20
2010,06,21,18,42,15.20
2010,06,21,18,43,15.20
2010,06,21,18,44,15.20
2010,06,21,18,45,15.30
2010,06,21,18,46,15.30
2010,06,21,18,47,15.40
2010,06,21,18,48,15.40
2010,06,21,18,49,15.30
2010,06,21,18,50,15.30
2010,06,21,18,51,15.20
2010,06,21,18,52,15.20
2010,06,21,18,53,15.10
2010,06,21,18,54,15.10
2010,06,21,18,55,15.10
2010,06,21,18,56,15.10
2010,06,21,18,57,15.20
2010,06,21,18,58,15.20
2010,06,21,18,59,15.20
2010,06,21,19,00,15.20
2010,06,21,19,01,15.20
2010,06,21,19,02,15.20
2010,06,21,19,03,15.10
2010,06,21,19,04,15.10
2010,06,21,19,05,15.00
2010,06,21,19,06,15.00
2010,06,21,19,07,15.00
2010,06,21,19,08,15.00
2010,06,21,19,09,15.10
2010,06,21,19,10,15.10
2010,06,21,19,11,15.10
2010,06,21,19,12,15.10
2010,06,21,19,13,15.00
2010,06,21,19,14,15.00
2010,06,21,19,15,15.00
2010,06,21,19,16,15.00
2010,06,21,19,17,15.00
2010,06,21,19,18,15.00
2010,06,21,19,19,15.00
2010,06,21,19,20,15.00
2010,06,21,19,21,15.00
2010,06,21,19,22,14.90
2010,06,21,19,23,14.80
2010,06,21,19,24,14.80
2010,06,21,19,25,14.70
2010,06,21,19,26,14.60
2010,06,21,19,27,14.60
2010,06,21,19,28,14.60
2010,06,21,19,29,14.50
2010,06,21,19,30,14.40
2010,06,21,19,31,14.40
2010,06,21,19,32,14.40
2010,06,21,19,33,14.40
2010,06,21,19,34,14.30
2010,06,21,19,35,14.30
2010,06,21,19,36,14.20
2010,06,21,19,37,14.20
2010,06,21,19,38,14.10
2010,06,21,19,39,14.00
2010,06,21,19,40,14.00
2010,06,21,19,41,13.90
2010,06,21,19,42,13.90
2010,06,21,19,43,13.80
2010,06,21,19,44,13.70
2010,06,21,19,45,13.70
2010,06,21,19,46,13.70
2010,06,21,19,47,13.70
2010,06,21,19,48,13.60
2010,06,21,19,49,13.60
2010,06,21,19,50,13.60
2010,06,21,19,51,13.60
2010,06,21,19,52,13.60
2010,06,21,19,53,13.60
2010,06,21,19,54,13.60
2010,06,21,19,55,13.60
2010,06,21,19,56,13.60
2010,06,21,19,57,13.60
2010,06,21,19,58,13.50
2010,06,21,19,59,13.50
2010,06,21,20,00,13.50
2010,06,21,20,01,13.50
2010,06,21,20,02,13.40
2010,06,21,20,03,13.40
2010,06,21,20,04,13.30
2010,06,21,20,05,13.30
2010,06,21,20,06,13.20
2010,06,21,20,07,13.20
2010,06,21,20,08,13.20
2010,06,21,20,09,13.20
2010,06,21,20,10,13.20
2010,06,21,20,11,13.10
2010,06,21,20,12,13.10
2010,06,21,20,13,13.10
2010,06,21,20,14,13.10
2010,06,21,20,15,13.00
2010,06,21,20,16,13.00
2010,06,21,20,17,13.00
2010,06,21,20,18,13.00
2010,06,21,20,19,13.00
2010,06,21,20,20,13.00
2010,06,21,20,21,13.00
2010,06,21,20,22,13.00
2010,06,21,20,23,13.00
2010,06,21,20,24,12.90
2010,06,21,20,25,12.90
2010,06,21,20,26,12.90
2010,06,21,20,27,12.90
2010,06,21,20,28,12.90
2010,06,21,20,29,12.90
2010,06,21,20,30,12.90
2010,06,21,20,31,12.90
2010,06,21,20,32,12.90
2010,06,21,20,33,12.90
2010,06,21,20,34,12.90
2010,06,21,20,35,12.90
2010,06,21,20,36,12.90
2010,06,21,20,37,12.90
2010,06,21,20,38,12.90
2010,06,21,20,39,12.90
2010,06,21,20,40,12.80
2010,06,21,20,41,12.80
2010,06,21,20,42,12.80
2010,06,21,20,43,12.80
2010,06,21,20,44,12.80
2010,06,21,20,45,12.80
2010,06,21,20,46,12.80
2010,06,21,20,47,12.80
2010,06,21,20,48,12.80
2010,06,21,20,49,12.80
2010,06,21,20,50,12.80
2010,06,21,20,51,12.80
2010,06,21,20,52,12.80
2010,06,21,20,53,12.80
2010,06,21,20,54,12.80
2010,06,21,20,55,12.80
2010,06,21,20,56,12.80
2010,06,21,20,57,12.80
2010,06,21,20,58,12.80
2010,06,21,20,59,12.80
2010,06,21,21,00,12.80
2010,06,21,21,01,12.80
